EHI
0 0 0 0 0 0 0 0 0 0 1 4 6 7 7 8 12 18 25 34 46 58 64 64 61 57 51 45 41 40 37 30 25 22 22 24 24 25 22 15 9 8 9 9
0 0 0 0 0 0 0 0 0 1 3 4 5 7 8 12 17 22 27 35 46 58 65 64 61 57 51 47 44 42 38 33 29 27 27 27 26 25 25 20 15 15 16 14
0 0 0 0 0 0 0 1 1 4 7 8 8 10 12 17 22 25 27 33 44 57 64 65 63 58 51 48 48 45 41 38 37 36 34 31 28 27 29 28 27 27 25 21
0 0 0 0 0 0 1 2 3 5 11 14 13 14 17 20 23 23 24 28 40 52 60 64 65 59 50 47 48 46 43 42 44 43 40 36 34 33 33 34 34 34 32 29
0 0 0 1 2 2 2 3 4 6 10 12 11 13 17 20 22 22 21 24 31 42 52 60 64 59 50 47 48 46 43 45 49 49 44 40 41 42 40 39 37 35 34 33
0 0 0 2 4 3 2 4 6 6 7 8 9 10 14 17 20 21 22 21 23 31 42 54 62 63 57 51 51 50 46 47 52 53 48 45 47 48 45 41 38 34 32 32
0 0 0 2 4 4 5 6 7 7 7 9 11 12 13 15 16 17 18 17 19 26 35 45 56 63 62 55 54 58 57 54 55 54 48 46 49 51 45 39 36 33 31 30
1 1 3 5 5 6 9 9 7 7 7 7 9 11 12 12 13 14 14 15 19 25 33 40 47 54 58 55 56 63 66 64 61 56 47 43 48 49 42 35 33 31 30 28
3 3 5 8 7 8 10 9 7 5 5 4 4 6 8 9 12 14 14 14 18 25 31 38 42 45 48 51 54 59 63 64 64 60 50 46 47 43 35 30 27 26 25 22
4 4 5 6 7 8 8 8 7 5 4 4 3 4 6 8 10 13 14 15 17 21 25 31 36 38 41 45 49 53 56 58 59 57 52 48 42 33 24 20 19 19 18 15
1 2 2 2 3 5 5 6 5 5 5 4 3 4 6 7 8 9 12 14 15 17 19 23 27 31 35 40 45 49 52 50 49 48 43 37 30 19 12 9 9 11 11 10
0 0 0 0 1 2 2 2 2 2 2 2 2 3 4 5 5 5 7 10 12 13 15 17 20 23 28 34 40 44 45 41 39 37 33 26 18 9 3 2 2 3 4 4
0 0 0 0 0 1 0 0 0 0 0 1 1 1 1 3 3 2 2 3 6 8 9 10 12 15 19 25 31 34 35 34 33 32 29 23 15 8 3 1 0 0 0 0
0 0 0 0 0 1 0 0 0 0 0 1 1 0 0 1 1 0 0 0 1 2 3 4 5 7 10 15 21 24 25 26 27 28 26 20 14 10 6 3 1 0 0 0
0 0 1 1 1 1 0 0 0 0 1 1 1 0 1 1 1 0 0 0 0 0 0 0 1 2 3 6 10 13 14 15 18 21 20 16 12 10 8 5 2 0 0 0
0 1 1 2 1 1 0 1 2 1 1 1 1 0 1 1 1 0 0 0 0 0 0 0 0 0 0 1 3 5 6 6 9 12 11 10 8 7 7 5 2 0 0 0
1 1 1 1 1 1 1 2 3 2 1 0 0 0 0 0 0 0 0 0 0 0 0 0 0 0 0 0 0 1 1 1 2 4 5 5 4 4 4 3 1 0 0 0
1 1 1 2 2 2 3 3 2 1 0 0 0 0 0 0 0 0 0 0 0 0 0 0 0 0 0 0 0 0 0 0 0 1 2 2 2 2 2 1 0 0 0 0
1 1 2 3 3 3 2 2 1 0 0 0 0 0 0 0 0 0 0 0 0 0 0 0 0 0 0 0 0 0 0 0 0 0 1 1 1 1 1 0 0 0 0 0
2 1 1 2 2 1 1 1 0 0 0 0 0 0 0 0 0 0 0 0 0 0 0 0 0 0 0 0 0 0 0 0 0 0 0 0 0 0 0 0 0 0 0 0
1 1 0 1 1 0 0 0 0 0 0 0 0 0 0 0 0 0 0 0 0 0 0 0 0 0 0 0 0 0 0 0 0 0 0 0 0 0 0 0 0 0 0 0
1 1 1 0 0 0 0 0 0 0 0 0 0 0 0 0 0 0 0 0 0 0 0 0 0 0 0 0 0 0 0 0 0 0 0 0 0 0 0 0 0 0 0 0
2 2 1 0 0 0 0 0 0 0 0 0 0 0 0 0 0 0 0 0 0 0 0 0 0 0 0 0 0 0 0 0 0 0 0 0 0 0 0 0 0 0 0 0
1 1 1 0 0 0 0 0 0 0 0 0 0 0 0 0 0 0 0 0 0 0 0 0 0 0 0 0 0 0 0 0 0 0 0 0 0 0 0 0 0 0 0 0
0 0 0 0 0 0 0 0 0 0 0 0 0 0 0 0 0 0 0 0 0 0 0 0 0 0 0 0 0 0 0 0 0 0 0 0 0 0 0 0 0 0 0 0
0 0 0 0 0 0 0 0 0 0 0 0 0 0 0 0 0 0 0 0 0 0 0 0 0 0 0 0 0 0 0 0 0 0 0 0 0 0 0 0 0 0 0 0
0 0 0 0 0 0 0 0 0 0 0 0 0 0 0 0 0 0 0 0 0 0 0 0 0 0 0 0 0 0 0 0 0 0 0 0 0 0 0 0 0 0 0 0
Wind_Speed
7 6 8 10 11 10 10 10 8 5 3 1 2 2 1 1 2 4 5 6 7 8 7 9 9 9 10 11 10 11 11 11 10 10 9 9 8 9 8 8 9 8 7 7
7 7 8 11 13 11 10 9 7 5 2 1 1 2 1 2 3 3 2 4 5 6 7 8 9 10 10 10 10 10 11 11 10 10 10 9 9 9 9 9 8 8 8 8
8 8 8 10 9 8 6 3 3 2 1 2 3 3 3 2 4 5 5 3 3 4 5 6 7 8 9 10 10 11 10 10 10 11 11 10 11 10 10 9 8 8 8 8
7 6 9 3 2 2 2 1 4 3 4 5 4 5 5 5 5 5 5 5 3 1 2 5 5 7 8 10 10 11 11 11 11 11 11 11 10 10 10 8 8 8 8 8
6 7 6 2 1 1 0 2 6 5 5 4 4 3 6 9 8 6 5 5 3 2 1 3 5 6 7 9 11 12 12 11 11 11 11 11 11 10 9 8 8 8 8 8
5 6 5 1 4 2 2 2 8 7 6 4 4 2 3 8 8 8 7 6 5 4 2 0 1 4 6 8 9 10 11 11 10 10 10 10 10 9 8 7 7 8 7 7
7 6 2 3 4 2 2 3 7 8 7 6 5 4 4 6 6 6 7 7 6 4 3 2 1 1 4 5 6 7 8 8 9 9 9 8 7 7 7 7 7 7 7 7
5 5 1 7 6 4 5 5 5 6 6 5 5 6 6 7 7 8 7 8 7 6 5 3 2 1 2 3 3 4 5 7 8 8 8 8 7 7 7 7 7 6 5 6
3 3 6 9 7 6 5 5 4 4 5 5 5 6 6 7 8 8 8 8 7 7 6 6 5 2 0 1 1 3 4 5 5 6 6 5 7 7 7 6 6 6 6 6
5 6 8 8 7 7 7 6 6 6 5 6 6 6 7 7 7 8 8 8 7 7 7 7 7 5 3 2 1 2 4 5 5 5 5 4 4 4 5 5 5 5 5 5
4 6 6 7 7 7 7 8 9 9 9 8 7 8 8 8 8 8 8 8 8 8 9 8 8 7 6 4 2 3 3 4 5 5 5 4 5 3 3 3 1 3 3 3
2 4 4 5 6 7 7 8 9 9 9 9 9 9 9 8 9 9 9 8 9 10 10 9 9 9 8 6 4 4 4 4 4 4 5 6 6 6 11 8 9 9 7 5
6 7 7 7 7 7 8 9 9 9 9 9 9 8 9 8 8 9 9 10 10 9 9 9 9 9 9 8 6 6 5 5 4 4 5 5 5 5 5 6 10 10 9 9
8 7 7 6 6 7 8 9 9 10 10 9 8 7 8 8 9 9 9 9 10 10 10 10 10 10 9 8 7 6 6 6 5 5 5 5 5 5 5 5 5 4 5 7
6 5 7 7 8 8 8 8 9 9 9 9 8 7 9 10 10 10 9 10 10 12 12 11 11 11 9 8 8 8 6 4 4 5 5 4 5 5 4 5 5 5 5 4
5 6 8 8 8 8 8 9 9 9 8 8 8 8 9 9 9 9 10 10 11 12 11 11 11 10 9 9 8 7 7 9 7 5 5 5 5 4 4 4 4 4 4 4
5 5 7 7 8 8 7 8 9 9 9 9 9 9 9 9 9 10 10 10 11 11 10 10 10 10 10 10 8 6 6 6 8 6 6 5 5 4 4 5 5 5 4 4
5 5 7 7 8 8 9 9 9 9 9 9 9 8 8 9 9 9 9 9 10 11 10 10 10 9 10 10 8 6 5 6 6 6 5 5 5 4 5 5 5 5 4 4
6 8 9 9 9 9 9 10 9 8 8 7 8 8 8 9 9 9 8 9 10 10 8 8 9 9 9 10 9 5 6 6 6 5 5 6 5 5 5 4 4 4 4 3
8 10 11 11 11 10 9 9 9 8 7 8 8 9 8 8 8 8 8 9 8 6 6 7 7 8 8 8 9 5 6 6 6 5 5 5 5 5 5 5 5 5 5 4
10 10 11 11 10 10 9 9 9 8 8 8 8 8 7 6 7 6 6 7 7 6 6 7 6 7 7 7 6 6 7 7 7 6 6 6 6 6 6 6 6 6 5 5
9 9 10 10 10 10 9 8 8 8 7 7 7 7 6 6 7 8 8 7 7 7 6 6 7 9 10 8 6 7 7 7 7 7 7 6 6 6 6 6 6 6 5 5
8 8 9 9 9 9 9 8 7 6 6 6 6 6 6 5 5 6 7 6 6 6 6 7 8 10 10 6 6 7 7 7 7 6 6 6 6 6 6 6 5 5 5 5
7 7 7 7 7 8 8 7 6 5 5 5 6 6 5 5 6 6 6 7 7 6 6 6 7 8 6 5 6 7 7 7 7 7 7 6 7 7 6 6 6 6 6 6
6 7 7 7 6 5 6 6 6 5 5 5 6 6 6 5 5 5 5 6 5 4 4 5 5 6 5 6 7 7 7 7 7 7 7 7 7 7 6 6 6 6 6 6
6 5 5 4 4 3 3 4 4 4 4 4 5 5 5 5 5 4 3 4 6 4 4 4 4 4 5 6 7 6 6 5 6 6 7 6 7 7 6 6 7 5 5 5
6 5 4 4 4 3 3 4 4 4 5 5 5 4 4 4 4 4 4 4 4 4 4 4 4 5 5 5 6 6 5 5 5 6 6 6 6 5 5 6 5 5 5 5
Wind_Direction
231 219 244 259 254 242 248 255 263 278 284 36 72 74 5 339 73 111 138 148 150 155 165 167 167 168 176 178 176 175 176 180 178 178 176 174 174 172 171 173 181 177 177 183
252 236 239 257 257 245 245 256 259 256 278 131 112 95 11 8 48 56 93 131 143 154 168 175 175 178 181 180 176 174 178 182 176 177 177 177 175 175 175 179 184 179 182 188
251 244 246 245 257 266 264 280 309 294 54 88 61 53 35 39 41 40 25 49 114 150 166 179 183 182 182 181 177 177 181 181 177 179 180 181 183 181 182 184 186 184 187 193
258 251 242 242 247 249 272 349 33 53 65 49 42 30 18 30 44 35 22 19 22 48 174 178 186 188 188 183 182 183 185 185 181 183 185 183 186 185 185 184 188 190 192 195
255 253 245 225 249 187 121 41 33 35 58 34 14 39 38 32 24 14 16 9 350 321 233 183 189 191 192 192 189 190 190 189 186 186 186 186 190 188 185 187 190 193 192 196
241 252 251 340 350 30 101 104 34 39 49 32 2 359 40 30 12 5 8 359 345 336 341 0 204 193 192 194 192 195 193 189 185 185 188 191 191 187 186 187 191 194 197 195
243 249 232 359 324 316 216 80 29 32 28 22 23 19 16 23 17 9 7 357 347 348 2 8 346 187 189 194 197 198 192 186 183 183 184 183 182 181 179 185 189 196 198 196
238 244 198 14 8 35 69 66 43 36 32 29 43 34 27 21 15 11 5 360 358 5 12 16 16 83 181 199 195 183 181 177 177 174 187 186 176 176 177 183 189 197 203 206
69 82 79 64 63 61 62 62 52 43 38 39 45 35 30 27 22 16 10 9 12 18 18 17 15 29 38 250 186 169 166 162 160 166 178 171 168 173 177 182 194 201 204 209
100 104 89 77 68 55 51 52 44 45 50 58 56 50 43 35 29 25 20 21 22 28 30 21 12 19 19 8 76 138 151 154 152 153 159 150 151 169 178 186 195 199 198 195
111 114 96 71 63 62 55 50 52 54 58 64 67 59 52 43 39 36 33 32 33 38 36 26 19 21 19 19 55 115 126 131 134 134 130 114 95 73 122 96 132 168 173 163
102 104 99 89 72 69 72 68 62 57 58 59 60 59 56 53 48 45 42 38 41 42 39 32 28 26 22 25 49 85 102 113 129 128 121 120 114 91 61 68 67 72 79 98
82 89 96 98 86 79 83 82 80 76 71 69 64 63 62 62 54 50 48 45 45 46 43 39 35 34 28 27 47 70 84 93 102 109 115 118 122 122 109 75 65 65 70 81
86 97 99 95 96 90 88 87 85 83 79 76 72 70 71 69 62 53 48 51 52 52 48 44 42 36 29 33 46 62 77 85 95 101 107 113 118 125 128 128 119 93 70 79
74 87 107 107 102 98 97 95 92 87 86 81 77 73 72 72 67 61 57 58 58 54 48 46 44 35 27 37 50 56 59 68 86 95 99 103 109 111 111 115 119 124 116 88
85 96 107 110 107 104 103 103 101 97 92 87 82 78 77 77 74 70 64 59 59 55 46 43 42 32 28 37 48 59 61 59 64 74 80 80 84 93 98 100 100 95 100 104
101 107 111 112 111 109 106 103 105 104 101 94 92 90 86 82 78 71 68 65 62 56 48 41 38 33 31 32 34 48 56 61 65 66 68 71 70 71 76 80 82 83 84 83
104 120 123 121 121 118 113 108 106 105 105 106 107 101 93 86 81 77 74 69 65 57 47 41 34 33 34 32 23 33 47 56 59 64 69 71 73 77 81 83 89 95 100 102
108 116 113 111 111 109 111 111 111 110 109 108 102 94 89 87 84 82 77 69 61 55 41 34 32 39 39 31 20 33 43 55 61 63 68 71 70 68 70 75 80 81 80 80
105 107 105 102 101 103 106 109 111 107 103 98 93 89 86 84 83 79 77 72 59 51 43 36 38 40 33 23 13 34 49 52 57 62 64 67 68 68 66 67 69 72 70 65
103 105 104 102 101 101 100 100 101 100 97 93 91 90 89 87 86 83 76 78 61 36 37 50 41 29 23 3 6 38 44 47 48 49 53 56 60 59 59 57 56 58 55 52
102 104 105 104 104 102 98 96 94 92 90 88 88 88 87 85 85 82 73 66 61 36 36 44 40 24 5 2 34 42 43 44 48 46 47 47 49 52 52 53 53 52 50 46
98 99 98 100 102 103 99 95 94 93 91 88 84 79 74 67 70 77 76 65 59 46 49 44 25 12 3 25 41 46 47 45 44 46 49 49 49 49 49 51 52 50 46 39
100 101 102 103 103 101 99 94 89 88 95 95 87 77 74 74 73 72 79 81 61 49 58 48 21 9 13 44 46 46 46 45 43 43 45 45 48 48 43 38 38 39 39 37
107 106 105 105 100 102 110 115 115 109 99 89 85 79 71 71 72 73 74 79 80 63 67 60 28 17 41 50 48 48 46 41 39 42 47 45 43 42 41 38 36 35 34 32
103 97 96 99 100 108 111 103 98 94 84 81 80 76 74 79 84 84 79 78 70 57 52 58 58 56 58 55 51 49 50 51 45 46 48 47 47 45 40 37 38 35 33 30
107 105 103 92 80 75 78 80 82 79 75 68 66 67 66 64 66 69 66 65 66 58 51 49 52 61 64 60 56 51 45 45 47 45 47 48 45 39 35 34 32 32 28 30